Montague, CA

2:47 PM PST on November 11, 2019 (GMT -0800)
Siskiyou County

Weather History for KSIY - October, 2019

Change the Weather History Date:

Wednesday, October 23, 2019

  Actual Average Record
Temperature  
Mean Temperature 53 °F 49 °F  
Max Temperature 73 °F 64 °F 79 °F (1988)
Min Temperature 32 °F 35 °F 26 °F (2002)
Degree Days  
Heating Degree Days 12 16  
Month to date heating degree days 338 269  
Since 1 July heating degree days 477 411  
Cooling Degree Days 0 0  
Month to date cooling degree days 0 0  
Year to date cooling degree days 745 542  
Growing Degree Days 3 (Base 50)    
Moisture  
Dew Point 33 °F    
Average Humidity 73    
Maximum Humidity 100    
Minimum Humidity 12    
Precipitation  
Precipitation 0.00 in 0.04 in 1.13 in (1973)
Month to date precipitation 0.36 0.67  
Year to date precipitation 9.71 12.31  
Sea Level Pressure  
Sea Level Pressure 30.35 in    
Wind  
Wind Speed 5 mph (East)    
Max Wind Speed 17 mph    
Max Gust Speed 21 mph    
Visibility 5 miles    
Events Fog    
T = Trace of Precipitation, MM = Missing Value Source: NWS Daily Summary

Daily Weather History Graph

Daily Weather History Graph

Search for Another Location

Airport or City:

Astronomy

Oct. 23, 2019 Rise Set
Actual Time 7:31 AM PDT 6:16 PM PDT
Civil Twilight 7:02 AM PDT 6:44 PM PDT
Nautical Twilight 6:30 AM PDT 7:17 PM PDT
Astronomical Twilight 5:58 AM PDT 7:49 PM PDT
Moon 1:49 AM PDT (10/23) 4:16 PM PDT (10/23)
Length of Visible Light 11h 42m
Length of Day
10h 45m
Waning Crescent, 25% of the Moon is Illuminated
Oct 23
Waning Crescent
Oct 27
New
Nov 4
First Quarter
Nov 12
Full
Nov 19
Last Quarter

Hourly Weather History & Observations

Time (PDT) Temp. Windchill Dew Point Humidity Pressure Visibility Wind Dir Wind Speed Gust Speed Precip Events Conditions
12:53 AM 46.9 °F - 43.0 °F 86% 30.37 in 10.0 mi NNE 5.8 mph - N/A   Clear
1:53 AM 45.0 °F 42.6 °F 41.0 °F 86% 30.36 in 10.0 mi West 4.6 mph - N/A   Clear
2:53 AM 39.9 °F 36.7 °F 37.0 °F 89% 30.37 in 10.0 mi ESE 4.6 mph - N/A   Clear
3:53 AM 39.9 °F - 37.0 °F 89% 30.35 in 10.0 mi Calm Calm - N/A   Clear
4:14 AM 37.9 °F 34.4 °F 36.0 °F 93% 30.33 in 1.8 mi South 4.6 mph - N/A   Clear
4:26 AM 37.9 °F - 37.0 °F 97% 30.33 in 4.0 mi Calm Calm - N/A   Clear
4:36 AM 39.9 °F - 37.9 °F 93% 30.34 in 2.5 mi Calm Calm - N/A   Partly Cloudy
4:40 AM 39.0 °F 36.8 °F 37.0 °F 93% 30.34 in 1.0 mi West 3.5 mph - N/A   Mist
4:50 AM 39.2 °F - 37.4 °F 93% 30.33 in 2.5 mi Calm Calm - N/A   Partly Cloudy
4:53 AM 39.9 °F - 37.9 °F 93% 30.35 in 7.0 mi Calm Calm - N/A   Partly Cloudy
4:57 AM 37.0 °F 34.5 °F 36.0 °F 96% 30.33 in 1.8 mi South 3.5 mph - N/A   Scattered Clouds
5:01 AM 36.0 °F 32.1 °F 35.1 °F 97% 30.33 in 0.8 mi SSE 4.6 mph - N/A   Mist
5:12 AM 37.0 °F 33.3 °F 36.0 °F 96% 30.33 in 1.2 mi South 4.6 mph - N/A   Partly Cloudy
5:16 AM 37.0 °F 34.5 °F 36.0 °F 96% 30.33 in 3.0 mi South 3.5 mph - N/A   Partly Cloudy
5:41 AM 37.0 °F 32.4 °F 35.1 °F 93% 30.33 in 1.8 mi West 5.8 mph - N/A   Partly Cloudy
5:50 AM 37.4 °F - 35.6 °F 93% 30.33 in 0.8 mi Calm Calm - N/A   Mist
5:53 AM 36.0 °F - 35.1 °F 97% 30.36 in 0.8 mi Calm Calm - N/A   Mist
6:04 AM 35.1 °F - 34.0 °F 96% 30.33 in 0.2 mi Calm Calm - N/A Fog Fog
6:41 AM 36.0 °F 33.3 °F 34.0 °F 93% 30.34 in 0.8 mi SE 3.5 mph - N/A   Mist
6:53 AM 34.0 °F - 33.1 °F 96% 30.38 in 0.2 mi Calm Calm - N/A Fog Fog
7:53 AM 33.1 °F 28.7 °F 32.0 °F 96% 30.40 in 0.5 mi WSW 4.6 mph - N/A Fog Fog
8:03 AM 33.1 °F 30.0 °F 32.0 °F 96% 30.36 in 0.2 mi SSW 3.5 mph - N/A Fog Fog
8:35 AM 35.1 °F 31.0 °F 34.0 °F 96% 30.37 in 1.0 mi SSW 4.6 mph - N/A   Mist
8:40 AM 35.1 °F 30.1 °F 34.0 °F 96% 30.37 in 0.2 mi SW 5.8 mph - N/A Fog Fog
8:53 AM 37.0 °F 33.3 °F 36.0 °F 96% 30.42 in 0.2 mi SW 4.6 mph - N/A Fog Fog
9:34 AM 39.9 °F - 39.0 °F 97% 30.38 in 0.8 mi Calm Calm - N/A   Mist
9:48 AM 42.8 °F - 41.0 °F 93% 30.38 in 2.0 mi Calm Calm - N/A   Mostly Cloudy
9:53 AM 43.0 °F - 41.0 °F 93% 30.42 in 5.0 mi Calm Calm - N/A   Scattered Clouds
10:53 AM 50.0 °F - 42.1 °F 74% 30.40 in 10.0 mi Variable 3.5 mph - N/A   Clear
11:53 AM 61.0 °F - 34.0 °F 36% 30.38 in 10.0 mi North 8.1 mph - N/A   Clear
12:53 PM 66.0 °F - 28.9 °F 25% 30.35 in 10.0 mi Variable 4.6 mph - N/A   Clear
1:53 PM 70.0 °F - 19.9 °F 15% 30.32 in 10.0 mi Calm Calm - N/A   Clear
2:53 PM 72.0 °F - 19.9 °F 14% 30.30 in 10.0 mi NNE 4.6 mph - N/A   Clear
3:53 PM 73.0 °F - 18.0 °F 12% 30.29 in 10.0 mi NNE 12.7 mph 17.3 mph N/A   Clear
4:53 PM 73.0 °F - 18.0 °F 12% 30.28 in 10.0 mi East 5.8 mph - N/A   Clear
5:53 PM 66.0 °F - 23.0 °F 20% 30.29 in 10.0 mi NNE 10.4 mph - N/A   Clear
6:53 PM 55.9 °F - 25.0 °F 30% 30.32 in 10.0 mi North 8.1 mph - N/A   Clear
7:53 PM 59.0 °F - 27.0 °F 29% 30.32 in 10.0 mi ENE 8.1 mph - N/A   Clear
8:53 PM 55.9 °F - 28.0 °F 34% 30.32 in 10.0 mi NE 9.2 mph - N/A   Clear
9:53 PM 55.9 °F - 30.9 °F 39% 30.33 in 10.0 mi ENE 6.9 mph 17.3 mph N/A   Clear
10:53 PM 54.0 °F - 28.9 °F 38% 30.34 in 10.0 mi North 5.8 mph - N/A   Clear
11:53 PM 51.1 °F - 28.0 °F 41% 30.34 in 10.0 mi North 10.4 mph - N/A   Clear